• In Russia
  • List of Countries
  • For 7 days
  • Water Temperature
  • Satellite Maps
  • Weather Map
  • Weather Widgets
  • user-avatar
    Login

    Hourly Weather Durres

    Today, 25 July, Tuesday

    Time Temperature Precipitation Wind Pressure Humidity
    00:00 +27°C° 0 mm 7 mps 752 mmHg 45%
    01:00 +27°C° 0 mm 7 mps 752 mmHg 46%
    02:00 +26°C° 0 mm 6 mps 752 mmHg 49%
    03:00 +24°C° 0 mm 6 mps 752 mmHg 51%
    04:00 +24°C° 0 mm 6 mps 752 mmHg 54%
    05:00 +26°C° 0.2 mm 5 mps 752 mmHg 55%
    06:00 +27°C° 0.2 mm 5 mps 752 mmHg 56%
    07:00 +29°C° 0.2 mm 5 mps 752 mmHg 56%
    08:00 +30°C° 0.1 mm 5 mps 752 mmHg 52%
    09:00 +32°C° 0.1 mm 4 mps 752 mmHg 48%
    10:00 +33°C° 0.1 mm 4 mps 752 mmHg 44%
    11:00 +33°C° 0.1 mm 4 mps 752 mmHg 43%
    12:00 +33°C° 0.1 mm 4 mps 752 mmHg 43%
    13:00 +34°C° 0.1 mm 4 mps 752 mmHg 42%
    14:00 +33°C° 0 mm 4 mps 752 mmHg 42%
    15:00 +33°C° 0 mm 4 mps 751 mmHg 41%
    16:00 +33°C° 0 mm 4 mps 751 mmHg 41%
    17:00 +30°C° 0 mm 4 mps 751 mmHg 46%
    18:00 +28°C° 0 mm 4 mps 752 mmHg 52%
    19:00 +26°C° 0 mm 4 mps 752 mmHg 57%
    20:00 +26°C° 0 mm 4 mps 752 mmHg 58%
    21:00 +25°C° 0 mm 5 mps 752 mmHg 60%
    22:00 +25°C° 0 mm 5 mps 752 mmHg 61%
    23:00 +25°C° 0.1 mm 5 mps 752 mmHg 61%

    Tomorrow, 26 July, Wednesday

    Time Temperature Precipitation Wind Pressure Humidity
    00:00 +23°C° 0.1 mm 5 mps 752 mmHg 62%
    01:00 +22°C° 0.1 mm 4 mps 752 mmHg 63%
    02:00 +22°C° 0.3 mm 5 mps 752 mmHg 63%
    03:00 +22°C° 0.3 mm 5 mps 752 mmHg 63%
    04:00 +21°C° 0.3 mm 5 mps 752 mmHg 63%
    05:00 +23°C° 0.2 mm 5 mps 752 mmHg 61%
    06:00 +26°C° 0.2 mm 5 mps 752 mmHg 58%
    07:00 +27°C° 0.2 mm 5 mps 752 mmHg 55%
    08:00 +28°C° 0.1 mm 5 mps 752 mmHg 52%
    09:00 +30°C° 0.1 mm 5 mps 752 mmHg 49%
    10:00 +32°C° 0.1 mm 5 mps 752 mmHg 46%
    11:00 +30°C° 0.3 mm 5 mps 752 mmHg 48%
    12:00 +30°C° 0.3 mm 5 mps 752 mmHg 50%
    13:00 +30°C° 0.3 mm 5 mps 752 mmHg 52%
    14:00 +30°C° 0.3 mm 5 mps 752 mmHg 52%
    15:00 +30°C° 0.3 mm 5 mps 752 mmHg 51%
    16:00 +29°C° 0.3 mm 5 mps 752 mmHg 50%
    17:00 +28°C° 0.3 mm 4 mps 752 mmHg 56%
    18:00 +26°C° 0.3 mm 4 mps 752 mmHg 62%
    19:00 +24°C° 0.3 mm 3 mps 753 mmHg 68%
    20:00 +24°C° 0.1 mm 3 mps 753 mmHg 71%
    21:00 +22°C° 0.1 mm 3 mps 753 mmHg 75%
    22:00 +21°C° 0.1 mm 2 mps 754 mmHg 78%
    23:00 +20°C° 0 mm 2 mps 754 mmHg 78%

    Day after tomorrow, 27 July, Thursday

    Time Temperature Precipitation Wind Pressure Humidity
    00:00 +20°C° 0 mm 2 mps 754 mmHg 79%
    01:00 +20°C° 0 mm 2 mps 754 mmHg 79%
    02:00 +20°C° 0.1 mm 2 mps 754 mmHg 79%
    03:00 +19°C° 0.1 mm 3 mps 754 mmHg 80%
    04:00 +19°C° 0.1 mm 3 mps 754 mmHg 80%
    05:00 +21°C° 0 mm 3 mps 755 mmHg 75%
    06:00 +23°C° 0 mm 2 mps 755 mmHg 69%
    07:00 +25°C° 0 mm 2 mps 755 mmHg 64%
    08:00 +27°C° 0 mm 2 mps 755 mmHg 57%
    09:00 +28°C° 0 mm 3 mps 755 mmHg 50%
    10:00 +30°C° 0 mm 3 mps 755 mmHg 42%
    11:00 +32°C° 0 mm 4 mps 755 mmHg 41%
    12:00 +32°C° 0 mm 5 mps 755 mmHg 40%
    13:00 +33°C° 0 mm 5 mps 755 mmHg 39%
    14:00 +32°C° 0 mm 6 mps 755 mmHg 41%
    15:00 +32°C° 0 mm 6 mps 755 mmHg 42%
    16:00 +30°C° 0 mm 6 mps 755 mmHg 44%
    17:00 +28°C° 0 mm 5 mps 756 mmHg 51%
    18:00 +26°C° 0 mm 4 mps 756 mmHg 59%
    19:00 +24°C° 0 mm 3 mps 756 mmHg 67%
    20:00 +22°C° 0 mm 3 mps 757 mmHg 70%
    21:00 +23°C° 0 mm 2 mps 757 mmHg 72%
    22:00 +21°C° 0 mm 2 mps 758 mmHg 74%
    23:00 +21°C° 0 mm 2 mps 758 mmHg 73%

    28 July, Friday

    Time Temperature Precipitation Wind Pressure Humidity
    00:00 +21°C° 0 mm 2 mps 758 mmHg 72%
    01:00 +21°C° 0 mm 1 mps 758 mmHg 71%
    02:00 +20°C° 0 mm 2 mps 758 mmHg 70%
    03:00 +20°C° 0 mm 2 mps 758 mmHg 69%
    04:00 +20°C° 0 mm 2 mps 758 mmHg 68%
    05:00 +23°C° 0 mm 2 mps 758 mmHg 61%
    06:00 +25°C° 0 mm 2 mps 759 mmHg 54%
    07:00 +27°C° 0 mm 1 mps 759 mmHg 48%
    08:00 +29°C° 0 mm 1 mps 759 mmHg 43%
    09:00 +31°C° 0 mm 1 mps 759 mmHg 37%
    10:00 +32°C° 0 mm 1 mps 759 mmHg 32%
    11:00 +34°C° 0 mm 2 mps 759 mmHg 31%
    12:00 +35°C° 0 mm 3 mps 759 mmHg 29%
    13:00 +36°C° 0 mm 4 mps 759 mmHg 28%
    14:00 +35°C° 0 mm 4 mps 759 mmHg 30%
    15:00 +35°C° 0 mm 4 mps 759 mmHg 32%
    16:00 +34°C° 0 mm 4 mps 759 mmHg 33%
    17:00 +31°C° 0 mm 3 mps 759 mmHg 42%
    18:00 +28°C° 0 mm 2 mps 759 mmHg 50%
    19:00 +26°C° 0 mm 2 mps 760 mmHg 59%
    20:00 +25°C° 0 mm 1 mps 760 mmHg 59%
    21:00 +25°C° 0 mm 1 mps 760 mmHg 60%
    22:00 +24°C° 0 mm 1 mps 761 mmHg 61%
    23:00 +24°C° 0 mm 1 mps 761 mmHg 59%

    29 July, Saturday

    Time Temperature Precipitation Wind Pressure Humidity
    00:00 +24°C° 0 mm 1 mps 761 mmHg 57%
    01:00 +23°C° 0 mm 1 mps 761 mmHg 55%
    02:00 +23°C° 0 mm 1 mps 761 mmHg 54%
    03:00 +23°C° 0 mm 1 mps 761 mmHg 52%
    04:00 +23°C° 0 mm 2 mps 761 mmHg 50%
    05:00 +25°C° 0 mm 2 mps 761 mmHg 45%
    06:00 +27°C° 0 mm 2 mps 761 mmHg 40%
    07:00 +29°C° 0 mm 2 mps 762 mmHg 35%
    08:00 +32°C° 0 mm 2 mps 762 mmHg 31%
    09:00 +35°C° 0 mm 2 mps 762 mmHg 27%
    10:00 +38°C° 0 mm 2 mps 762 mmHg 23%
    11:00 +38°C° 0 mm 2 mps 762 mmHg 22%
    12:00 +39°C° 0 mm 3 mps 761 mmHg 21%
    13:00 +40°C° 0 mm 4 mps 761 mmHg 20%
    14:00 +40°C° 0 mm 4 mps 761 mmHg 22%
    15:00 +38°C° 0 mm 4 mps 761 mmHg 23%
    16:00 +38°C° 0 mm 4 mps 761 mmHg 25%
    17:00 +35°C° 0 mm 3 mps 761 mmHg 32%
    18:00 +31°C° 0 mm 3 mps 761 mmHg 40%
    19:00 +28°C° 0 mm 2 mps 761 mmHg 48%
    20:00 +28°C° 0 mm 2 mps 761 mmHg 48%
    21:00 +27°C° 0 mm 2 mps 761 mmHg 48%
    22:00 +27°C° 0 mm 1 mps 762 mmHg 49%
    23:00 +26°C° 0 mm 1 mps 762 mmHg 47%

    30 July, Sunday

    Time Temperature Precipitation Wind Pressure Humidity
    00:00 +26°C° 0 mm 1 mps 761 mmHg 46%
    01:00 +26°C° 0 mm 1 mps 761 mmHg 45%
    02:00 +26°C° 0 mm 1 mps 761 mmHg 45%
    03:00 +26°C° 0 mm 1 mps 761 mmHg 45%
    04:00 +26°C° 0 mm 1 mps 761 mmHg 44%
    05:00 +28°C° 0 mm 1 mps 761 mmHg 41%
    06:00 +30°C° 0 mm 1 mps 761 mmHg 38%
    07:00 +32°C° 0 mm 1 mps 761 mmHg 34%
    08:00 +34°C° 0 mm 1 mps 761 mmHg 30%
    09:00 +37°C° 0 mm 2 mps 761 mmHg 26%
    10:00 +40°C° 0 mm 2 mps 761 mmHg 22%
    11:00 +40°C° 0 mm 3 mps 760 mmHg 22%
    12:00 +41°C° 0 mm 4 mps 760 mmHg 21%
    13:00 +42°C° 0 mm 4 mps 760 mmHg 21%
    14:00 +41°C° 0 mm 4 mps 760 mmHg 22%
    15:00 +41°C° 0 mm 4 mps 759 mmHg 23%
    16:00 +40°C° 0 mm 5 mps 759 mmHg 23%
    17:00 +36°C° 0 mm 4 mps 759 mmHg 30%
    18:00 +34°C° 0 mm 4 mps 759 mmHg 36%
    19:00 +30°C° 0 mm 3 mps 759 mmHg 42%
    20:00 +29°C° 0 mm 3 mps 760 mmHg 43%
    21:00 +29°C° 0 mm 2 mps 760 mmHg 44%
    22:00 +28°C° 0 mm 2 mps 760 mmHg 44%
    23:00 +28°C° 0 mm 2 mps 760 mmHg 44%
    Show more